ペトリュー彗星

185P/Petriew (2023)

English version
Home page
Updated on September 2, 2023

---------------------------------------------------------------------

・ プロフィール

・ 写真集

・ 軌道要素

Epoch 2023 Feb. 25.0 TT = JDT 2460000.5
T 2023 July 12.90371 TT                                 Rudenko
q   0.9302929            (2000.0)            P               Q
n   0.18076420     Peri.  181.89084     +0.80950490     -0.57118642
a   3.0978551      Node   214.11529     +0.54179430     +0.81588005
e   0.6996977      Incl.   14.01461     +0.22618744     +0.08992116
P   5.45
>From 763 observations 2007 Jan. 11-2023 May 3, mean residual 0".8.
     Nongravitational parameters A1 = -0.01, A2 = +0.0147.

・ 星図

・ 光度変化

        m1 = 12.7 + 5 logΔ + 30.0 log r(t - 10)  [  ,10]  (              〜2023年 7月22日)
        m1 = 12.5 + 5 logΔ + 23.0 log r(t - 10)  [10,  ]  (2023年 7月22日〜              )

---------------------------------------------------------------------

軌道要素はM.P.E.C. 2023-J29に掲載されたものです。
星図はステラナビゲータ Ver.10 (アストロアーツ) で作成したものです。
光度グラフはComet for Windowsで作成したものです。

---------------------------------------------------------------------

Copyright(C) Seiichi Yoshida (comet@aerith.net). All rights reserved.